Zurück zum Katalog

DELTA 1 DEB

AktivLEO
NORAD 2706·DEBRIS·🇺🇸 United States

Gestartet Jan 26, 1967 von Vandenberg Space Force Base

Loading…

Nächste Überflüge (nächste 24 Stunden)

TLE

AktuellSource: Space-Track

Epoche: Sep 13, 2026, 14:13 UTC

1  2706U 67006C   26256.59286065 -.00000033  00000-0  86886-4 0  9993
2  2706 102.1666 300.0530 0035114 247.4779 267.4933 12.60934452743693

Verfolge DELTA 1 DEB in Echtzeit mit AllMySat

Download on the App Store